Time,TemperatureF,DewpointF,PressureIn,WindDirection,WindDirectionDegrees,WindSpeedMPH,WindSpeedGustMPH,Humidity,HourlyPrecipIn,Conditions,Clouds,dailyrainin,SolarRadiationWatts/m^2,SoftwareType,DateUTC
2019-03-21 00:00:04,39.1,31.0,30.48,NE,36,3.0,4.0,72,0.00,,,0.00,0.00,weatherlink.com 1.10,2019-03-20 23:00:04,
2019-03-21 00:15:05,38.8,31.0,30.48,NE,45,3.0,4.0,73,0.00,,,0.00,0.00,weatherlink.com 1.10,2019-03-20 23:15:05,
2019-03-21 00:30:08,38.4,30.0,30.48,NE,37,4.0,4.0,73,0.00,,,0.00,0.00,weatherlink.com 1.10,2019-03-20 23:30:08,
2019-03-21 00:45:10,38.1,30.0,30.49,NE,39,3.0,4.0,73,0.00,,,0.00,0.00,weatherlink.com 1.10,2019-03-20 23:45:10,
2019-03-21 01:00:13,37.8,30.0,30.49,NE,40,3.0,5.0,74,0.00,,,0.00,0.00,weatherlink.com 1.10,2019-03-21 00:00:13,
2019-03-21 01:15:17,37.8,30.0,30.49,NE,38,5.0,6.0,73,0.00,,,0.00,0.00,weatherlink.com 1.10,2019-03-21 00:15:17,
2019-03-21 01:30:18,37.9,30.0,30.49,NE,40,4.0,6.0,73,0.00,,,0.00,0.00,weatherlink.com 1.10,2019-03-21 00:30:18,
2019-03-21 01:45:20,37.6,30.0,30.50,NE,38,5.0,6.0,73,0.00,,,0.00,0.00,weatherlink.com 1.10,2019-03-21 00:45:20,
2019-03-21 02:00:23,37.9,29.0,30.50,NE,37,4.0,7.0,71,0.00,,,0.00,0.00,weatherlink.com 1.10,2019-03-21 01:00:23,
2019-03-21 02:15:24,37.7,29.0,30.50,NE,37,3.0,6.0,71,0.00,,,0.00,0.00,weatherlink.com 1.10,2019-03-21 01:15:24,
2019-03-21 02:30:25,37.4,29.0,30.49,NNE,32,4.0,5.0,72,0.00,,,0.00,0.00,weatherlink.com 1.10,2019-03-21 01:30:25,
2019-03-21 02:45:27,36.9,29.0,30.49,NE,40,5.0,6.0,72,0.00,,,0.00,0.00,weatherlink.com 1.10,2019-03-21 01:45:27,
2019-03-21 03:00:30,36.8,29.0,30.49,NE,38,6.0,7.0,73,0.00,,,0.00,0.00,weatherlink.com 1.10,2019-03-21 02:00:30,
2019-03-21 03:15:32,36.8,29.0,30.48,NNE,15,3.0,8.0,72,0.00,,,0.00,0.00,weatherlink.com 1.10,2019-03-21 02:15:32,
2019-03-21 03:30:34,36.3,28.0,30.48,NE,46,3.0,5.0,73,0.00,,,0.00,0.00,weatherlink.com 1.10,2019-03-21 02:30:34,
2019-03-21 03:45:36,35.8,28.0,30.48,NE,34,3.0,5.0,74,0.00,,,0.00,0.00,weatherlink.com 1.10,2019-03-21 02:45:36,
2019-03-21 04:00:37,35.9,28.0,30.48,NNE,28,3.0,6.0,74,0.00,,,0.00,0.00,weatherlink.com 1.10,2019-03-21 03:00:37,
2019-03-21 04:15:38,35.4,28.0,30.48,NNE,32,4.0,5.0,75,0.00,,,0.00,0.00,weatherlink.com 1.10,2019-03-21 03:15:38,
2019-03-21 04:30:40,35.5,28.0,30.49,NNE,29,2.0,6.0,74,0.00,,,0.00,0.00,weatherlink.com 1.10,2019-03-21 03:30:40,
2019-03-21 04:45:41,35.4,28.0,30.49,NE,48,4.0,5.0,75,0.00,,,0.00,0.00,weatherlink.com 1.10,2019-03-21 03:45:41,
2019-03-21 05:00:42,35.6,28.0,30.49,NE,43,3.0,8.0,74,0.00,,,0.00,0.00,weatherlink.com 1.10,2019-03-21 04:00:42,
2019-03-21 05:15:43,35.2,28.0,30.49,North,9,2.0,5.0,75,0.00,,,0.00,0.00,weatherlink.com 1.10,2019-03-21 04:15:43,
2019-03-21 05:30:45,34.8,28.0,30.49,North,5,3.0,4.0,76,0.00,,,0.00,0.00,weatherlink.com 1.10,2019-03-21 04:30:45,
2019-03-21 05:45:49,34.3,28.0,30.49,NE,39,4.0,4.0,77,0.00,,,0.00,0.00,weatherlink.com 1.10,2019-03-21 04:45:49,
2019-03-21 06:00:48,34.1,28.0,30.49,NE,35,3.0,4.0,78,0.00,,,0.00,0.00,weatherlink.com 1.10,2019-03-21 05:00:48,
2019-03-21 06:15:50,34.0,28.0,30.50,NNE,33,2.0,4.0,78,0.00,,,0.00,0.00,weatherlink.com 1.10,2019-03-21 05:15:50,
2019-03-21 06:30:52,34.0,28.0,30.50,NNE,12,2.0,5.0,78,0.00,,,0.00,5.00,weatherlink.com 1.10,2019-03-21 05:30:52,
2019-03-21 06:45:55,34.2,28.0,30.50,North,355,4.0,6.0,78,0.00,,,0.00,14.00,weatherlink.com 1.10,2019-03-21 05:45:55,
2019-03-21 07:00:58,34.5,28.0,30.51,North,5,2.0,4.0,78,0.00,,,0.00,25.00,weatherlink.com 1.10,2019-03-21 06:00:58,
2019-03-21 07:15:02,35.4,29.0,30.52,NE,44,3.0,5.0,77,0.00,,,0.00,63.00,weatherlink.com 1.10,2019-03-21 06:15:02,
2019-03-21 07:30:06,36.6,29.0,30.52,NE,42,4.0,5.0,75,0.00,,,0.00,102.00,weatherlink.com 1.10,2019-03-21 06:30:06,
2019-03-21 07:45:11,38.4,30.0,30.52,NE,40,5.0,6.0,72,0.00,,,0.00,151.00,weatherlink.com 1.10,2019-03-21 06:45:11,
2019-03-21 08:00:16,40.9,31.0,30.52,NE,49,5.0,6.0,68,0.00,,,0.00,206.00,weatherlink.com 1.10,2019-03-21 07:00:16,
2019-03-21 08:15:20,42.8,31.0,30.53,NE,52,5.0,6.0,64,0.00,,,0.00,255.00,weatherlink.com 1.10,2019-03-21 07:15:20,
2019-03-21 08:30:24,44.9,31.0,30.53,NNE,30,4.0,5.0,59,0.00,,,0.00,297.00,weatherlink.com 1.10,2019-03-21 07:30:24,
2019-03-21 08:45:29,46.1,31.0,30.53,NE,38,3.0,5.0,56,0.00,,,0.00,338.00,weatherlink.com 1.10,2019-03-21 07:45:29,
2019-03-21 09:00:33,47.8,32.0,30.53,NE,38,1.0,4.0,54,0.00,,,0.00,380.00,weatherlink.com 1.10,2019-03-21 08:00:33,
2019-03-21 09:15:37,49.7,29.0,30.53,NNE,22,1.0,6.0,46,0.00,,,0.00,417.00,weatherlink.com 1.10,2019-03-21 08:15:37,
2019-03-21 09:30:41,50.4,29.0,30.53,SW,236,3.0,5.0,44,0.00,,,0.00,455.00,weatherlink.com 1.10,2019-03-21 08:30:41,
2019-03-21 09:45:46,50.8,29.0,30.53,NW,315,0.0,6.0,43,0.00,,,0.00,489.00,weatherlink.com 1.10,2019-03-21 08:45:46,
2019-03-21 10:00:50,50.8,29.0,30.53,WSW,240,3.0,5.0,43,0.00,,,0.00,519.00,weatherlink.com 1.10,2019-03-21 09:00:50,
2019-03-21 10:15:54,51.5,29.0,30.53,North,5,0.0,6.0,43,0.00,,,0.00,543.00,weatherlink.com 1.10,2019-03-21 09:15:54,
2019-03-21 10:30:57,52.3,30.0,30.52,WNW,295,4.0,8.0,43,0.00,,,0.00,571.00,weatherlink.com 1.10,2019-03-21 09:30:57,
2019-03-21 10:45:00,51.9,30.0,30.52,SW,227,4.0,9.0,43,0.00,,,0.00,548.00,weatherlink.com 1.10,2019-03-21 09:45:00,
2019-03-21 11:00:01,51.9,29.0,30.52,WSW,246,3.0,7.0,41,0.00,,,0.00,299.00,weatherlink.com 1.10,2019-03-21 10:00:01,
2019-03-21 11:15:03,52.7,29.0,30.51,NNW,328,1.0,6.0,41,0.00,,,0.00,485.00,weatherlink.com 1.10,2019-03-21 10:15:03,
2019-03-21 11:30:06,53.5,30.0,30.51,NNW,332,1.0,10.0,40,0.00,,,0.00,652.00,weatherlink.com 1.10,2019-03-21 10:30:06,
2019-03-21 11:45:08,53.8,30.0,30.50,North,355,2.0,9.0,40,0.00,,,0.00,631.00,weatherlink.com 1.10,2019-03-21 10:45:08,